Location: Paderno d�Adda
(45.6667°N, 9.4333°E)
Time: 05:02:02
(UTC+00:00)

Cosmos 1125 Rocket - Pass Details

Date: 25 January 2021
Orbit: 757 x 781 km, 74.0° (Epoch: 05 March)

Event Time Altitude Azimuth Distance (km) Brightness Sun altitude
Exits shadow 06:13:25 - 329° (NNW) 3,189 6.2 -6.9°
Reaches altitude 10° 06:15:49 10° 320° (NW) 2,338 5.5 -6.5°
Maximum altitude 06:20:26 31° 260° (W) 1,344 4.4 -5.8°
Drops below altitude 10° 06:25:02 10° 199° (SSW) 2,328 6.1 -5.0°
Sets 06:27:38 0° 189° (S) 3,251 6.9 -4.6°
